Vertical_Velocity
-4 -4 5 4 2 4 -2 -9 -0 -0 -1 1 4 3 6 5 1 -0 8 8 -0 3 -0 1 0 -0 -1 -0 -1 -0 -0 1 -0 -0 3 1 -1 1 -3 -4 1 -1 0 0 -3 -0 -1 -0 -3
-3 -8 6 1 4 3 -8 -5 0 -2 4 -5 -7 -5 -2 -1 -3 -1 -5 9 3 -2 1 -2 1 -1 -2 -2 -0 -0 -0 -0 0 0 0 -1 1 -2 -0 1 -2 -2 1 -1 -1 -2 -1 -2 -2
-5 -2 10 1 0 -1 -4 -1 2 4 -5 -4 2 -1 3 9 10 -1 4 -1 7 -3 0 -0 -1 0 -2 -3 -2 -3 -3 1 0 0 -2 -1 -1 1 -2 -2 0 1 -2 -2 -0 -2 -1 -1 -1
-5 -2 1 6 -3 -9 -4 -4 1 0 -2 -3 4 -1 7 5 -1 0 -1 6 7 -3 -3 0 -3 -5 0 -1 -1 -2 -1 -1 -4 -1 0 0 -1 -2 -0 -1 -2 0 -2 1 -2 -1 -2 -2 -2
4 2 3 3 -6 -6 -4 1 0 -1 -0 2 -1 -10 4 0 -2 -3 -5 8 2 0 -0 -2 -2 -5 -1 -3 -0 -0 -1 -2 1 -2 -1 -2 -3 -1 -1 -0 -1 -2 0 -2 -0 1 -0 -1 -1
6 2 3 -0 -4 -4 -1 -1 -2 -1 -3 -2 -3 0 7 1 -5 -2 -2 4 4 -1 -3 0 -3 -3 -3 -3 -0 0 -1 -1 1 -2 -2 -2 -2 -2 -2 1 0 1 -2 -0 -2 -2 -3 -2 -0
5 4 -4 -1 -5 -0 -5 -1 0 -1 0 -8 -9 1 9 10 7 -9 -0 3 5 -1 -5 0 -3 -1 -4 -2 -3 -3 -2 -2 -1 -1 1 -0 -1 -0 -3 -5 -2 -4 0 -1 -2 -2 -1 -2 -2
2 5 2 -3 -2 -12 -7 6 -4 0 -11 23 -3 -2 6 0 -1 -2 8 3 1 4 -6 -1 0 -1 -4 -2 2 -3 -3 -0 -2 -1 -3 2 -1 -0 0 -0 -1 -2 -3 -1 -1 -2 -2 -1 1
3 6 -0 -9 4 -13 -7 3 6 -9 0 10 -0 6 -3 -1 1 2 4 -0 7 -1 8 -0 -1 -1 1 1 -1 1 -3 -4 -2 -2 -1 -4 0 -2 -1 -1 -1 -0 -2 0 -2 -1 -1 -0 -0
5 4 -5 -4 -2 -2 -3 4 1 2 1 -8 1 17 -4 -1 -0 0 -1 -3 2 -1 2 5 1 -4 -0 -3 -3 2 -1 6 -5 -2 -1 -0 -2 -1 -2 -2 -1 -0 -2 1 -2 -1 -0 -1 -2
-4 -1 -3 -8 -5 6 1 -4 1 2 1 -4 -9 -3 -7 -5 0 4 -1 -3 -6 -3 1 -4 13 -0 -5 -4 -3 -2 1 -1 -0 0 -5 -1 3 0 -3 -0 -0 -1 -0 1 -0 -1 -3 -1 -0
15 -0 -0 -12 3 -2 -0 -0 -4 7 -12 -9 6 23 20 2 4 -6 2 9 1 -3 -3 -2 -6 9 4 -5 -2 -1 -5 -2 -1 -3 2 -4 -0 1 0 -0 1 -1 -2 -2 1 0 0 -3 -0
5 -4 1 -2 0 -1 0 -2 -0 -5 -0 -3 -5 -3 6 -0 -6 7 9 -9 5 13 1 -5 2 4 -2 -6 -3 -1 6 -2 0 -1 1 -0 0 0 -3 6 1 -1 0 -2 -1 -1 -0 -2 0
-2 1 -3 -3 0 -4 7 -6 20 -12 -12 -4 2 -3 -2 6 -6 -9 0 9 -3 10 6 1 -7 5 -4 -1 -5 -3 4 2 1 3 -1 -1 -3 -1 11 1 -2 -1 -0 3 -0 -2 -0 -2 -0
-2 -1 -1 -3 -5 -2 2 3 -2 -19 2 0 -0 -7 -11 -8 6 -5 -9 3 5 -16 16 -3 -1 1 -4 0 -4 -4 4 1 -2 2 -1 -2 5 0 -3 -3 -2 -0 1 -0 -0 -1 -2 -2 0
2 8 4 -8 3 -12 13 -13 -7 5 9 -6 -7 -4 1 -1 -8 -11 -7 -6 4 10 -9 5 -1 -6 -2 -2 0 1 -0 -1 2 -0 3 -3 1 -2 -1 -3 -1 -1 -1 -1 -1 -1 -3 -0 -1
2 -1 2 -2 -1 -0 4 -3 -8 5 5 -3 4 1 -0 -5 -7 2 -2 -3 -11 7 7 10 11 -2 -4 -1 1 -2 3 7 -1 -3 -1 -2 -2 0 -1 -1 -1 -0 -2 -1 -1 1 -0 -1 -2
-3 4 0 0 3 2 1 -5 -4 -7 3 -0 -3 -4 -1 0 -3 1 -1 -4 4 -4 9 1 4 10 -1 -0 4 1 7 -0 -4 2 0 -4 -7 -3 -2 1 0 -2 -1 -0 -1 -1 -0 -2 -2
3 2 1 -4 -2 2 -0 -1 -5 -5 4 1 -2 -1 -5 -9 -9 1 -9 -5 7 7 2 18 3 -3 0 5 2 5 -2 -0 3 1 4 -3 -7 -1 1 1 -2 -0 -1 -2 -0 -1 -1 -2 -1
0 1 -5 -5 -2 6 -1 -9 -5 -1 -7 -2 -2 -4 -1 2 -5 -7 -1 6 -9 -8 -5 4 21 2 -3 -1 3 12 -2 4 7 -1 1 -0 4 3 5 4 2 -2 0 -1 -1 -1 -2 -1 -2
-1 1 -1 5 -3 -4 5 -8 0 -4 3 4 -2 -8 -3 -4 -0 -0 -1 -4 4 0 -15 -6 5 15 1 2 8 3 9 10 3 -2 -1 -5 5 2 4 2 -1 -0 0 -1 1 -2 -3 -2 -2
2 -0 1 0 1 -1 -2 -9 -3 -4 -2 1 -0 -1 -5 -5 -3 -7 -8 6 15 -6 3 -9 4 -1 11 10 3 -3 -8 -6 -5 1 -1 5 5 3 1 1 0 -2 -0 -2 0 -1 -2 -1 -2
-3 -1 1 1 1 0 -2 4 -14 2 -0 -1 -2 -0 1 -2 -4 -7 -7 -10 -19 4 19 2 -9 7 7 9 0 1 -1 4 4 1 -1 -1 -1 6 3 0 0 1 -1 -4 2 -2 -1 -3 -2
1 -1 1 0 1 4 -8 1 -9 -0 -1 -0 -2 3 2 8 7 0 2 18 1 -2 0 5 17 -3 4 10 6 -1 0 -3 -3 -1 -3 0 2 3 2 3 2 2 -4 -5 3 -2 -2 -1 -1
-2 -1 -1 1 2 -8 -1 7 -16 -4 -4 2 -1 -3 4 2 -4 0 -1 -5 -1 -2 -6 -5 -0 6 6 3 9 -5 6 4 4 7 -0 -1 -0 0 1 0 -1 1 -4 -1 1 -1 -3 -2 -2
-3 -2 -2 -1 0 -1 -1 -4 -15 -5 -1 0 -4 -7 -9 0 6 -3 -8 -11 -6 5 2 -8 2 9 7 2 3 -3 9 -2 2 1 1 2 1 2 -0 1 1 -3 -1 0 1 -1 -1 -1 -2
4 2 -2 2 -1 2 -4 -7 -8 -1 -3 -1 -1 3 -1 -4 0 -0 -1 -8 -10 -1 12 -6 3 -3 5 4 1 4 4 -3 3 -1 5 2 4 2 2 -1 3 5 -2 2 1 -0 -1 -2 -1
-4 -0 -5 -0 -1 -1 -3 -2 -10 -2 -2 -1 -2 -0 1 14 6 -2 -5 -12 -5 -2 13 5 -2 4 3 6 6 2 -3 2 2 2 -1 6 4 5 -1 1 3 1 0 1 -1 -1 -2 -1 -2
6 1 2 -0 -0 -1 0 -7 2 2 2 1 -0 2 1 0 -4 -4 -6 -14 -3 -4 18 2 3 0 8 8 3 -4 3 3 0 6 4 2 1 3 1 1 -1 -0 2 1 -0 -1 -1 -1 -1
-4 -3 -1 -2 -5 -2 1 -20 -2 0 1 1 -0 -1 -6 -5 0 -2 -1 -7 -10 -1 4 5 6 -4 22 2 0 4 2 -1 2 -0 -0 5 -2 5 3 -2 4 -1 2 0 -1 -1 -2 -0 -0
Height
1506 1507 1509 1509 1516 1505 1507 1493 1474 1479 1481 1479 1480 1480 1483 1482 1483 1500 1494 1495 1493 1493 1496 1499 1501 1504 1506 1508 1510 1511 1513 1513 1515 1518 1520 1520 1521 1522 1523 1524 1523 1523 1525 1526 1529 1531 1532 1534 1535
1505 1505 1508 1506 1511 1514 1500 1478 1479 1478 1479 1481 1483 1483 1484 1484 1483 1487 1491 1495 1494 1493 1496 1499 1502 1504 1506 1509 1510 1511 1513 1514 1516 1517 1520 1521 1522 1523 1524 1524 1524 1525 1526 1527 1529 1531 1533 1534 1534
1503 1505 1507 1502 1505 1509 1499 1475 1472 1475 1480 1484 1484 1482 1483 1485 1486 1488 1490 1493 1496 1494 1496 1499 1502 1504 1506 1509 1511 1512 1514 1515 1518 1519 1520 1521 1523 1524 1524 1525 1526 1526 1527 1529 1530 1532 1533 1534 1534
1502 1505 1505 1502 1499 1488 1487 1476 1475 1478 1481 1484 1483 1482 1482 1485 1486 1487 1491 1493 1496 1496 1497 1500 1502 1505 1507 1509 1511 1513 1514 1516 1518 1520 1521 1522 1524 1525 1526 1526 1527 1528 1529 1530 1531 1532 1533 1534 1535
1502 1500 1501 1498 1494 1486 1478 1475 1475 1480 1481 1482 1483 1482 1482 1484 1486 1488 1491 1495 1497 1496 1498 1500 1502 1505 1507 1510 1511 1512 1514 1516 1518 1519 1521 1523 1524 1525 1526 1527 1528 1529 1530 1531 1532 1533 1533 1535 1535
1499 1496 1499 1499 1489 1480 1477 1474 1475 1480 1482 1482 1482 1482 1485 1485 1485 1489 1492 1495 1498 1497 1498 1500 1502 1504 1507 1509 1511 1512 1514 1516 1518 1519 1521 1523 1524 1525 1527 1528 1529 1530 1531 1532 1533 1533 1535 1536 1536
1492 1492 1494 1491 1486 1478 1472 1471 1472 1477 1480 1481 1481 1481 1483 1486 1485 1488 1493 1495 1497 1495 1495 1498 1501 1503 1506 1509 1511 1512 1513 1515 1517 1518 1521 1522 1524 1525 1526 1528 1529 1531 1532 1532 1533 1534 1535 1536 1537
1490 1489 1490 1486 1484 1479 1468 1467 1470 1475 1480 1480 1480 1481 1485 1486 1487 1489 1493 1495 1497 1497 1495 1497 1499 1501 1504 1507 1510 1511 1512 1514 1516 1518 1520 1523 1523 1525 1526 1528 1529 1530 1532 1533 1533 1535 1536 1536 1536
1487 1490 1488 1484 1480 1475 1470 1468 1469 1474 1479 1479 1480 1481 1484 1486 1488 1488 1492 1494 1496 1497 1498 1496 1498 1500 1503 1506 1508 1510 1511 1513 1515 1517 1519 1522 1524 1525 1526 1527 1529 1530 1531 1533 1533 1534 1535 1535 1534
1483 1486 1479 1475 1473 1472 1469 1467 1470 1474 1477 1479 1480 1480 1482 1485 1487 1487 1489 1491 1493 1495 1497 1497 1497 1501 1503 1504 1507 1509 1510 1511 1513 1516 1519 1521 1522 1524 1525 1527 1529 1530 1531 1532 1533 1534 1534 1535 1533
1480 1480 1474 1472 1471 1470 1471 1469 1470 1472 1474 1476 1477 1479 1480 1483 1485 1485 1487 1489 1491 1492 1495 1497 1498 1498 1501 1502 1505 1507 1509 1511 1512 1514 1517 1521 1522 1522 1524 1526 1527 1528 1530 1531 1532 1532 1533 1533 1534
1478 1475 1474 1471 1470 1472 1473 1473 1471 1472 1474 1475 1474 1477 1478 1479 1481 1482 1485 1487 1488 1489 1491 1494 1497 1498 1498 1500 1503 1504 1506 1509 1510 1512 1514 1517 1520 1522 1523 1525 1526 1527 1529 1530 1531 1530 1531 1531 1531
1473 1475 1472 1471 1470 1472 1473 1474 1474 1472 1474 1475 1472 1473 1475 1477 1477 1480 1482 1483 1486 1487 1487 1490 1494 1496 1496 1497 1500 1503 1505 1507 1509 1512 1514 1516 1518 1521 1523 1524 1525 1526 1528 1529 1529 1530 1529 1530 1529
1471 1472 1472 1471 1469 1472 1473 1472 1475 1473 1471 1470 1471 1470 1471 1473 1474 1477 1477 1480 1481 1484 1484 1486 1489 1492 1493 1495 1498 1501 1504 1506 1509 1510 1513 1514 1517 1520 1523 1522 1524 1526 1527 1527 1527 1528 1528 1528 1527
1471 1476 1473 1471 1468 1469 1471 1469 1466 1468 1467 1467 1467 1466 1467 1467 1469 1471 1474 1475 1477 1480 1481 1482 1485 1487 1490 1492 1495 1498 1502 1504 1507 1509 1510 1513 1517 1518 1518 1520 1524 1524 1525 1526 1526 1526 1526 1526 1525
1476 1476 1480 1462 1459 1462 1469 1466 1460 1458 1458 1459 1460 1460 1461 1461 1462 1464 1467 1470 1472 1474 1477 1479 1480 1483 1485 1487 1490 1493 1497 1500 1502 1506 1507 1511 1512 1513 1516 1519 1520 1522 1524 1524 1524 1524 1524 1524 1522
1472 1479 1471 1463 1454 1456 1461 1461 1454 1454 1453 1453 1452 1453 1453 1454 1456 1458 1461 1463 1466 1469 1471 1473 1474 1475 1479 1484 1486 1490 1493 1495 1498 1502 1504 1507 1509 1511 1513 1515 1517 1519 1520 1521 1522 1522 1521 1521 1520
1472 1470 1467 1463 1455 1456 1460 1457 1454 1453 1452 1450 1449 1448 1447 1448 1448 1450 1453 1456 1458 1461 1465 1468 1470 1471 1473 1478 1481 1485 1488 1490 1493 1496 1499 1501 1504 1507 1509 1511 1513 1515 1517 1518 1518 1519 1519 1519 1518
1462 1463 1464 1459 1453 1457 1457 1453 1450 1448 1444 1441 1442 1442 1442 1442 1443 1444 1446 1447 1450 1453 1456 1459 1461 1465 1468 1472 1474 1477 1480 1484 1488 1492 1493 1495 1499 1502 1505 1507 1509 1511 1513 1514 1516 1516 1516 1517 1516
1462 1467 1469 1462 1458 1460 1458 1448 1445 1439 1431 1431 1433 1433 1433 1435 1436 1437 1439 1440 1442 1445 1448 1452 1455 1455 1461 1464 1469 1471 1474 1478 1483 1486 1487 1491 1495 1498 1501 1503 1505 1507 1510 1511 1512 1513 1514 1514 1513
1468 1470 1470 1471 1464 1461 1458 1440 1427 1417 1417 1418 1421 1423 1425 1425 1427 1430 1432 1433 1436 1437 1440 1444 1448 1452 1453 1458 1463 1465 1468 1471 1475 1478 1482 1485 1490 1494 1497 1499 1502 1505 1507 1508 1509 1511 1511 1511 1511
1471 1463 1465 1467 1472 1478 1464 1466 1431 1417 1414 1411 1411 1413 1416 1419 1422 1424 1426 1427 1429 1431 1434 1438 1441 1445 1448 1451 1453 1456 1457 1460 1465 1469 1473 1479 1485 1489 1493 1495 1498 1501 1504 1506 1507 1508 1508 1508 1508
1468 1467 1470 1472 1476 1478 1470 1481 1425 1410 1412 1409 1408 1407 1410 1414 1416 1418 1419 1420 1423 1425 1428 1430 1434 1438 1442 1443 1443 1449 1452 1455 1459 1463 1468 1474 1479 1485 1488 1491 1494 1497 1500 1503 1504 1506 1506 1506 1506
1469 1469 1472 1475 1478 1484 1464 1461 1420 1410 1407 1406 1404 1404 1405 1408 1410 1412 1414 1417 1418 1419 1420 1423 1426 1430 1435 1437 1437 1440 1445 1447 1453 1457 1462 1468 1474 1478 1483 1486 1490 1493 1496 1499 1501 1502 1503 1504 1503
1470 1474 1488 1489 1488 1484 1435 1453 1421 1403 1400 1403 1403 1404 1405 1404 1407 1410 1411 1412 1413 1413 1414 1415 1419 1422 1427 1431 1433 1435 1441 1441 1447 1451 1455 1461 1467 1473 1477 1481 1485 1489 1493 1496 1497 1498 1499 1500 1500
1469 1472 1485 1475 1471 1458 1442 1437 1416 1398 1396 1397 1398 1400 1401 1402 1403 1403 1407 1410 1409 1407 1406 1409 1412 1415 1420 1424 1428 1431 1435 1437 1441 1446 1451 1458 1463 1468 1473 1478 1482 1486 1489 1492 1493 1494 1495 1496 1496
1469 1477 1471 1476 1465 1477 1445 1417 1401 1395 1391 1390 1391 1392 1392 1396 1401 1402 1403 1404 1403 1401 1401 1402 1405 1410 1415 1418 1423 1428 1430 1434 1436 1441 1449 1454 1460 1465 1470 1474 1478 1482 1486 1488 1490 1490 1491 1492 1491
1464 1467 1481 1482 1496 1466 1429 1419 1410 1398 1396 1393 1395 1392 1390 1391 1395 1398 1399 1402 1399 1396 1396 1396 1400 1404 1409 1413 1418 1421 1428 1430 1434 1440 1445 1451 1458 1462 1466 1470 1475 1480 1482 1485 1486 1487 1487 1487 1487
1467 1469 1468 1467 1466 1470 1445 1419 1390 1396 1397 1396 1395 1393 1392 1392 1394 1396 1398 1400 1397 1393 1393 1392 1394 1402 1406 1409 1410 1417 1423 1428 1433 1438 1443 1449 1455 1460 1463 1467 1472 1477 1480 1482 1483 1483 1483 1483 1483
1455 1460 1464 1478 1468 1458 1454 1414 1391 1394 1395 1395 1397 1393 1391 1392 1392 1393 1395 1396 1395 1391 1390 1389 1392 1398 1401 1402 1408 1414 1419 1426 1430 1435 1441 1447 1451 1457 1461 1466 1470 1474 1477 1479 1480 1480 1480 1479 1478